EW8486 Weather Reports


Display with metric or nautical units.
time (UTC)temp
F
wind
direction
speed
MPH
gust
MPH
rain 1hr
in
rain 24hr
in
rain mn
in
humidity
%
barometer
mb
20260504233517 79 45 4.0 9.0 0.00 0.00 0.00 29 1009.1
20260504232017 80 45 6.0 12.0 0.00 0.00 0.00 29 1009.1
20260504230516 81 45 5.0 13.0 0.00 0.00 0.00 27 1009.4
20260504225037 81 45 6.0 11.0 0.00 0.00 0.00 27 1009.4
20260504223517 81 68 3.0 9.0 0.00 0.00 0.00 28 1009.5
20260504222016 82 45 4.0 9.0 0.00 0.00 0.00 27 1009.7
20260504220516 82 45 4.0 8.0 0.00 0.00 0.00 26 1009.7
20260504215016 81 45 8.0 13.0 0.00 0.00 0.00 26 1009.9
20260504213557 80 45 8.0 15.0 0.00 0.00 0.00 26 1010.1
20260504212036 80 45 8.0 14.0 0.00 0.00 0.00 26 1010.2
20260504210516 79 45 9.0 13.0 0.00 0.00 0.00 27 1010.3
20260504205016 80 45 4.0 10.0 0.00 0.00 0.00 29 1010.6
20260504203516 78 45 6.0 12.0 0.00 0.00 0.00 29 1010.5
20260504202016 78 45 5.0 11.0 0.00 0.00 0.00 29 1010.7
20260504200516 79 68 5.0 10.0 0.00 0.00 0.00 28 1010.8
20260504195016 78 45 6.0 12.0 0.00 0.00 0.00 28 1011.0
20260504193516 78 45 4.0 11.0 0.00 0.00 0.00 30 1011.1
20260504192016 76 45 4.0 11.0 0.00 0.00 0.00 33 1011.4
20260504190516 75 45 4.0 9.0 0.00 0.00 0.00 32 1011.6
20260504185016 73 113 2.0 6.0 0.00 0.00 0.00 36 1011.7
20260504183516 72 68 3.0 6.0 0.00 0.00 0.00 39 1011.7
20260504182016 72 68 4.0 10.0 0.00 0.00 0.00 39 1012.0
20260504180516 70 45 3.0 8.0 0.00 0.00 0.00 40 1011.9
20260504175016 70 45 3.0 7.0 0.00 0.00 0.00 40 1012.1
20260504173516 68 45 3.0 8.0 0.00 0.00 0.00 44 1012.2
20260504172036 67 90 3.0 7.0 0.00 0.00 0.00 47 1012.3
20260504170516 67 90 2.0 5.0 0.00 0.00 0.00 46 1012.4
20260504150515 61 90 2.0 4.0 0.00 0.00 0.00 60 1012.8
20260504140515 57 0.0 2.0 0.00 0.00 0.00 61 1012.4
20260504130515 54 0.0 2.0 0.00 0.00 0.00 60 1011.8
20260504110515 54 293 1.0 2.0 0.00 0.00 0.00 55 1012.0
20260504100517 56 0.0 3.0 0.00 0.00 0.00 53 1011.7
20260504080537 60 0 1.0 3.0 0.00 0.00 0.00 44 1011.4
20260504050515 72 293 2.0 7.0 0.00 0.00 0.00 26 1010.8
20260504045035 75 248 1.0 5.0 0.00 0.00 0.00 24 1010.6
20260504043515 75 293 2.0 5.0 0.00 0.00 0.00 23 1010.6
20260504042015 74 315 1.0 6.0 0.00 0.00 0.00 25 1010.3
20260504040515 74 270 2.0 4.0 0.00 0.00 0.00 25 1010.3
20260504035055 71 270 1.0 3.0 0.00 0.00 0.00 30 1010.1
20260504033515 71 338 1.0 3.0 0.00 0.00 0.00 29 1010.1
20260504032015 70 158 1.0 2.0 0.00 0.00 0.00 34 1010.0
20260504030515 71 0.0 2.0 0.00 0.00 0.00 32 1010.1
20260504025015 71 0.0 1.0 0.00 0.00 0.00 37 1009.9
20260504023516 72 158 1.0 4.0 0.00 0.00 0.00 35 1009.9
20260504022017 74 0.0 1.0 0.00 0.00 0.00 32 1009.8
20260504020517 74 248 1.0 3.0 0.00 0.00 0.00 33 1009.9
20260504015017 74 158 1.0 2.0 0.00 0.00 0.00 36 1009.9
20260504013517 76 0.0 1.0 0.00 0.00 0.00 33 1009.9
20260504012017 78 248 3.0 7.0 0.00 0.00 0.00 30 1010.1
20260504010517 78 158 2.0 4.0 0.00 0.00 0.00 30 1010.2
20260504005017 80 113 2.0 4.0 0.00 0.00 0.00 28 1010.5
20260504003517 80 90 1.0 3.0 0.00 0.00 0.00 26 1010.5
20260504002017 80 158 1.0 3.0 0.00 0.00 0.00 26 1010.8
20260504000517 79 180 3.0 5.0 0.00 0.00 0.00 27 1010.9
20260503235734 79 180 2.0 4.0 0.00 0.00 0.00 28 1011.1